Showing default

TJS-7, 49115

Orbit data source: Space-Track

TJS-7, 49115 is a payload satellite owned by CASC (CN) in GEO that was launched on Tue, 24 Aug 2021 UTC via a CHANG ZHENG 3B launch vehicle from the Xichang Space Center, China (XSC). Payload-class satellites include a variety of spacecraft equipped with specific instruments for various scientific and technological missions. These include communications satellites like Starlink; space stations such as the ISS; scientific satellites like the Hubble; Earth observation satellites from companies like Planet Labs, Umbra, and HawkEye 360; GPS; miniature CubeSats for education and research; and military/defense satellites.

Loading next visibility...
Identifier
49115, 2021-077A
Orbit
GEO
Country
Flag of CNCN / PRC
Related business
Manufacturer
SISE
Mission
Operational Defense Early Warn
Bus & Motor
FY-4?, Unknown motor
Mass
~4,000 kg wet, ~2,500 kg dry
Launch date (UTC)
2021-08-24 (5 years ago)
Launch vehicle
CHANG ZHENG 3B
Launch site
Xichang Space Center, China (XSC)
Object type
Payload
Rocket body
Debris
Shape & HBR
Box + 2 Pan, 15.0 m
Radar Cross Section
34.063 m², Large (>1 m²)

Expand to show TLE details & history
Last TLE update: 20 hours ago

TLE from 20 hours ago
0 TJS-7
1 49115U 21077A   26145.56405501 -.00000125  00000-0  00000-0 0  9990
2 49115   0.4525  86.3105 0002244 319.8327 300.6088  1.00271389  9326
Epoch: 2026-05-25T13:32Z
TLE epoch observation values (Epoch: 2026-05-25T13:32:14.352Z)
Latitude
-0.43159°
Longitude
-99.47762°
Altitude
35,781.433 km
Speed
3.075 km/s
True Right ascension
23h 06m 55s
True Declination
0° 25' 52"
Sunlit
Object was in daylight at epoch
Visualization orbit readout
Latitude
Unknown
Longitude
Unknown
Altitude
Unknown
Speed
Unknown
Apparent Right ascension
Unknown
Apparent Declination
Unknown
Sunlit
N/A
Visualization observer readout
Local Sidereal Time
19:07:29
Azimuth
Unknown
Elevation
Unknown
Doppler factor
Unknown
Orbital elements
Apogee altitude
35,797.238 km
Perigee altitude
35,778.314 km
Semi-major axis
42,165.913 km
Eccentricity
0.00022
Inclination
0.4525°
RAAN
86.3105°
Arg. of periapsis
319.8327°
True anomaly
300.58667°
Mean anomaly
300.6088°
Eccentric anomaly
300.59773°
Mean motion
0.25067 °/min
Orbital period
1,436.16 mins
BSTAR
0
Loading maneuver chart data...
Computing Atmospheric mass density...
Loading historical data...
Loading historical data...
Loading historical data...
Loading historical data...
Loading historical data...
Loading historical data...
Loading historical data...
Other satellites on launch #77 in the year 2021 (2021-08-24 UTC)

Documentation

Showing up to 5 results
|